Location: ?ern� Novina
(50.6762°N, 14.8696°E)
Time: 02:53:00
(UTC+00:00)

Sich 1 - Pass Details

Date: 03 March 2021
Orbit: 593 x 626 km, 82.5° (Epoch: 13 April)

Event Time Altitude Azimuth Distance (km) Brightness Sun altitude
Rises 17:28:44 0° 198° (SSW) 2,878 6.7 -7.6°
Reaches altitude 10° 17:30:58 10° 201° (SSW) 1,982 6.0 -8.0°
Maximum altitude 17:35:19 62° 283° (WNW) 703 3.7 -8.7°
Drops below altitude 10° 17:39:45 10° 5° (N) 2,011 5.7 -9.4°
Sets 17:42:01 0° 8° (N) 2,924 6.5 -9.7°
